White Mountain, AK

6:02 PM AKST on January 20, 2018 (GMT -0900)
White Mountain

Weather History for PAWM - February, 2014

Change the Weather History Date:

Thursday, February 27, 2014

  Actual Average (PAOM) Record (PAOM)
Temperature  
Mean Temperature 37 °F -  
Max Temperature 41 °F 15 °F 46 °F (1991)
Min Temperature 33 °F -2 °F -40 °F (1971)
Degree Days  
Heating Degree Days 28    
Moisture  
Dew Point 28 °F    
Average Humidity 71    
Maximum Humidity 96    
Minimum Humidity 57    
Precipitation  
Precipitation 0.09 in - - ()
Sea Level Pressure  
Sea Level Pressure 29.66 in    
Wind  
Wind Speed 4 mph (ENE)    
Max Wind Speed 17 mph    
Max Gust Speed 23 mph    
Visibility 9 miles    
Events Rain , Snow    
Averages and records for this station are not official NWS values.
T = Trace of Precipitation, MM = Missing Value Source: NWS Daily Summary

Daily Weather History Graph

Daily Weather History Graph

Search for Another Location

Airport or City:

Trip Planner

Search our weather history database for the weather conditions in past years. The results will help you decide how hot, cold, wet, or windy it might be!

Date:

Astronomy

Feb. 27, 2014 Rise Set
Actual Time 9:08 AM AKST 7:05 PM AKST
Civil Twilight 8:19 AM AKST 7:54 PM AKST
Nautical Twilight 7:23 AM AKST 8:51 PM AKST
Astronomical Twilight 6:25 AM AKST 9:49 PM AKST
Moon 8:14 AM AKST (2/27) 5:29 PM AKST (2/27)
Length of Visible Light 11h 35m
Length of Day
9h 56m
Waning Crescent, 3% of the Moon is Illuminated
Feb 27
Waning Crescent
Feb 28
New
Mar 8
First Quarter
Mar 16
Full
Mar 23
Last Quarter

Hourly Weather History & Observations

Time (AKST) Temp. Windchill Dew Point Humidity Pressure Visibility Wind Dir Wind Speed Gust Speed Precip Events Conditions
12:58 AM 36.0 °F - 25.0 °F 64% 29.63 in 10.0 mi Calm Calm - 0.00 in   Overcast
1:58 AM 34.0 °F 31.0 °F 25.0 °F 70% 29.63 in 10.0 mi NW 3.5 mph - N/A   Overcast
2:58 AM 34.0 °F 29.8 °F 25.0 °F 70% 29.63 in 10.0 mi North 4.6 mph - N/A   Overcast
3:58 AM 35.1 °F 31.0 °F 24.1 °F 64% 29.64 in 10.0 mi NE 4.6 mph - N/A   Overcast
4:58 AM 35.1 °F 32.2 °F 23.0 °F 61% 29.64 in 10.0 mi NNW 3.5 mph - N/A   Overcast
5:58 AM 34.0 °F - 23.0 °F 64% 29.64 in 10.0 mi Calm Calm - N/A   Mostly Cloudy
6:58 AM 36.0 °F 30.3 °F 21.9 °F 57% 29.65 in 10.0 mi ESE 6.9 mph - N/A   Mostly Cloudy
7:58 AM 36.0 °F 30.3 °F 21.9 °F 57% 29.65 in 10.0 mi East 6.9 mph - N/A   Scattered Clouds
8:58 AM 35.1 °F 31.0 °F 23.0 °F 61% 29.65 in 10.0 mi North 4.6 mph - N/A   Clear
9:58 AM 37.9 °F 35.5 °F 24.1 °F 57% 29.66 in 10.0 mi East 3.5 mph - N/A   Overcast
10:58 AM 36.0 °F 32.1 °F 24.1 °F 62% 29.67 in 10.0 mi NNE 4.6 mph - N/A   Overcast
11:58 AM 39.0 °F - 27.0 °F 62% 29.68 in 10.0 mi Calm Calm - N/A   Overcast
12:58 PM 39.9 °F 37.8 °F 26.1 °F 58% 29.68 in 10.0 mi ENE 3.5 mph - N/A   Overcast
1:58 PM 41.0 °F 37.1 °F 28.0 °F 60% 29.69 in 10.0 mi ESE 5.8 mph - N/A   Overcast
2:58 PM 41.0 °F 35.8 °F 30.0 °F 65% 29.69 in 10.0 mi ESE 8.1 mph - 0.00 in   Overcast
3:58 PM 39.0 °F 35.7 °F 32.0 °F 76% 29.68 in 10.0 mi ESE 4.6 mph - 0.00 in Rain Light Rain
4:58 PM 37.9 °F 32.7 °F 34.0 °F 86% 29.68 in 8.0 mi SE 6.9 mph - 0.00 in Rain Light Rain
5:58 PM 37.9 °F 32.7 °F 35.1 °F 89% 29.66 in 7.0 mi NNW 6.9 mph - 0.01 in Rain Light Rain
6:58 PM 37.9 °F 32.7 °F 34.0 °F 86% 29.65 in 10.0 mi North 6.9 mph - 0.00 in Rain Light Rain
7:58 PM 37.9 °F 35.5 °F 33.1 °F 83% 29.65 in 10.0 mi NNW 3.5 mph - 0.00 in   Overcast
8:58 PM 37.9 °F 33.5 °F 33.1 °F 83% 29.68 in 10.0 mi South 5.8 mph - 0.00 in   Overcast
9:58 PM 37.9 °F 32.1 °F 30.9 °F 76% 29.69 in 10.0 mi SSE 8.1 mph - 0.00 in Rain Light Rain
10:58 PM 35.1 °F 24.8 °F 30.0 °F 82% 29.71 in 4.0 mi ESE 17.3 mph - 0.02 in Snow Light Snow
11:08 PM 33.8 °F 23.9 °F 30.2 °F 87% 29.68 in 5.0 mi ESE 15.0 mph 23.0 mph 0.01 in Snow Light Snow
11:58 PM 33.1 °F 24.4 °F 32.0 °F 96% 29.71 in 6.0 mi East 11.5 mph - 0.06 in   Overcast